FW0708 Weather Reports


Display with metric or nautical units.
time (UTC)temp
F
wind
direction
speed
MPH
gust
MPH
rain 1hr
in
rain 24hr
in
rain mn
in
humidity
%
barometer
mb
20260905220050 70 40 3.0 10.0 0.00 0.01 0.01 86 1016.8
20260905214550 70 25 3.0 11.0 0.00 0.01 0.01 85 1017.0
20260905213049 71 54 5.0 12.0 0.00 0.01 0.01 84 1016.9
20260905211548 71 37 4.0 7.0 0.00 0.01 0.01 83 1017.0
20260905210048 71 33 4.0 11.0 0.00 0.01 0.01 83 1017.1
20260905204547 72 42 4.0 10.0 0.00 0.01 0.01 83 1017.1
20260905203048 72 42 3.0 11.0 0.00 0.01 0.01 82 1017.2
20260905201547 72 52 3.0 10.0 0.00 0.01 0.01 82 1017.3
20260905200050 72 336 4.0 10.0 0.00 0.01 0.01 80 1017.4
20260905194547 72 12 4.0 12.0 0.00 0.01 0.01 79 1017.2
20260905193050 72 32 6.0 12.0 0.00 0.01 0.01 78 1017.3
20260905191546 72 22 2.0 8.0 0.00 0.01 0.01 80 1017.2
20260905190054 72 56 2.0 8.0 0.00 0.01 0.01 80 1017.1
20260905184545 72 2 3.0 9.0 0.00 0.01 0.01 82 1017.2
20260905183042 71 8 4.0 11.0 0.00 0.01 0.01 83 1017.2
20260905181546 71 56 3.0 11.0 0.00 0.01 0.01 85 1017.3
20260905180044 71 31 3.0 11.0 0.00 0.01 0.01 86 1017.3
20260905174541 71 349 1.0 8.0 0.00 0.01 0.01 86 1017.4
20260905173038 72 10 0.0 5.0 0.00 0.01 0.01 85 1017.4
20260905171546 72 25 3.0 8.0 0.00 0.01 0.01 83 1017.5
20260905170038 73 28 2.0 7.0 0.00 0.01 0.01 82 1017.7
20260905164536 73 341 1.0 3.0 0.00 0.01 0.01 80 1017.7
20260905163034 73 347 1.0 4.0 0.00 0.01 0.01 82 1017.6
20260905161529 72 22 1.0 5.0 0.00 0.01 0.01 86 1017.5
20260905160029 71 24 3.0 6.0 0.00 0.01 0.01 89 1017.3
20260905154522 70 15 1.0 5.0 0.00 0.01 0.01 91 1017.4
20260905153022 69 54 2.0 7.0 0.00 0.01 0.01 94 1017.3
20260905151514 68 60 1.0 5.0 0.00 0.01 0.01 96 1017.4
20260905150010 68 52 0.0 5.0 0.00 0.01 0.01 97 1017.3
20260905144516 67 17 1.0 4.0 0.00 0.01 0.01 97 1017.1
20260905143006 67 12 1.0 4.0 0.00 0.01 0.01 98 1017.0
20260905141504 67 37 1.0 4.0 0.00 0.01 0.01 98 1016.8
20260905140000 67 56 1.0 4.0 0.00 0.01 0.01 98 1016.9
20260905134558 67 73 0.0 0.0 0.00 0.01 0.01 98 1017.1
20260905133056 67 73 0.0 0.0 0.00 0.01 0.01 98 1016.9
20260905131612 67 73 0.0 0.0 0.00 0.01 0.01 98 1016.9
20260905130050 67 73 0.0 0.0 0.00 0.01 0.01 98 1016.8
20260905124548 66 73 0.0 0.0 0.00 0.01 0.01 98 1016.4
20260905123045 66 73 0.0 1.0 0.00 0.01 0.01 98 1016.3
20260905121542 66 73 0.0 1.0 0.00 0.01 0.01 98 1016.0
20260905120039 66 73 0.0 0.0 0.00 0.01 0.01 98 1015.8
20260905114543 66 73 0.0 2.0 0.00 0.01 0.01 98 1015.4
20260905113037 66 73 0.0 1.0 0.00 0.01 0.01 98 1015.2
20260905111542 66 73 0.0 3.0 0.00 0.01 0.01 98 1015.1
20260905110036 66 56 0.0 4.0 0.00 0.01 0.01 98 1015.0
20260905104539 66 25 0.0 1.0 0.00 0.01 0.01 98 1015.1
20260905103038 66 25 0.0 0.0 0.00 0.01 0.01 98 1015.3
20260905101536 66 25 1.0 3.0 0.00 0.01 0.01 98 1015.3
20260905100035 66 19 0.0 0.0 0.00 0.01 0.01 98 1015.4
20260905094534 66 19 0.0 0.0 0.00 0.56 0.01 98 1015.3
20260905093034 66 19 0.0 0.0 0.00 0.56 0.01 98 1015.4
20260905091533 66 19 0.0 0.0 0.00 0.56 0.01 98 1015.5
20260905090035 66 19 0.0 3.0 0.00 0.56 0.01 98 1015.5
20260905084531 66 59 0.0 2.0 0.00 0.59 0.01 97 1015.5
20260905083042 66 59 0.0 0.0 0.01 0.59 0.01 97 1015.4
20260905081531 66 59 0.0 0.0 0.01 0.59 0.01 97 1015.4
20260905080040 66 59 0.0 2.0 0.01 0.59 0.01 97 1015.3
20260905074529 66 56 0.0 2.0 0.01 0.59 0.01 97 1015.3
20260905073028 66 56 1.0 4.0 0.00 0.57 0.00 97 1015.3
20260905071527 66 51 1.0 6.0 0.00 0.57 0.00 97 1015.2
20260905070024 66 56 1.0 6.0 0.00 0.57 0.00 97 1015.0
20260905064523 66 50 1.0 9.0 0.00 0.57 0.00 97 1014.9
20260905063023 67 62 0.0 2.0 0.00 0.57 0.00 97 1015.0
20260905061522 67 64 1.0 3.0 0.00 0.57 0.00 97 1015.0
20260905060025 67 49 0.0 4.0 0.00 0.57 0.00 97 1015.0
20260905054531 67 58 0.0 4.0 0.00 0.60 0.00 97 1015.0
20260905053020 67 60 0.0 3.0 0.00 0.60 0.00 97 1014.9
20260905051526 67 39 0.0 4.0 0.00 0.60 0.00 97 1014.9
20260905050018 67 359 0.0 2.0 0.00 0.60 0.00 96 1014.8
20260905044515 67 336 0.0 5.0 0.00 0.69 0.60 96 1014.7
20260905043015 66 350 1.0 8.0 0.00 0.69 0.60 96 1014.8
20260905041514 66 301 1.0 4.0 0.00 0.69 0.60 96 1014.7
20260905040014 66 325 2.0 5.0 0.00 0.69 0.60 95 1014.7
20260905034516 66 326 4.0 8.0 0.00 0.69 0.60 95 1014.8
20260905033013 66 296 1.0 5.0 0.00 0.69 0.60 95 1014.9
20260905031512 66 315 2.0 8.0 0.00 0.69 0.60 95 1014.9
20260905030013 67 321 1.0 4.0 0.00 0.69 0.60 95 1015.0
20260905024511 67 321 1.0 5.0 0.00 0.69 0.60 95 1014.9
20260905023012 67 341 0.0 5.0 0.00 0.69 0.60 95 1014.9
20260905021510 67 327 2.0 6.0 0.00 0.69 0.60 95 1014.7
20260905020011 67 319 1.0 5.0 0.00 0.69 0.60 95 1014.7
20260905014508 67 20 0.0 2.0 0.00 0.69 0.60 95 1014.7
20260905013010 67 20 0.0 2.0 0.00 0.69 0.60 95 1014.5
20260905011513 67 20 0.0 2.0 0.00 0.69 0.60 95 1014.4
20260905010005 67 20 0.0 2.0 0.00 0.69 0.60 95 1014.3
20260905004501 67 20 0.0 3.0 0.00 0.69 0.60 95 1014.0
20260905003001 67 20 1.0 5.0 0.00 0.69 0.60 95 1013.9
20260905001601 67 356 0.0 4.0 0.00 0.69 0.60 94 1013.8
20260905000107 67 331 1.0 6.0 0.00 0.69 0.60 94 1013.8
20260904234559 67 29 1.0 7.0 0.00 0.69 0.60 94 1013.8
20260904233059 67 15 3.0 8.0 0.00 0.69 0.60 94 1013.7
20260904231558 67 352 3.0 9.0 0.00 0.69 0.60 94 1013.8
20260904230109 67 358 3.0 9.0 0.00 0.69 0.60 93 1013.7
20260904224557 68 3 3.0 9.0 0.00 0.69 0.60 93 1013.7
20260904223103 68 356 6.0 11.0 0.00 0.69 0.60 93 1013.6
20260904221557 68 354 4.0 9.0 0.00 0.69 0.60 93 1013.5